STARLINK-3500, 51740

Orbit data source: Space-Track

STARLINK-3500, 51740 is a payload satellite owned by SpaceX/Seattle (US) in LEO that was launched on Mon, 21 Feb 2022 UTC via an FALCON 9 launch vehicle from the Air Force Eastern Test Range (AFETR). Payload-class satellites include a variety of spacecraft equipped with specific instruments for various scientific and technological missions. These include communications satellites like Starlink; space stations such as the ISS; scientific satellites like the Hubble; Earth observation satellites from companies like Planet Labs, Umbra, and HawkEye 360; GPS; miniature CubeSats for education and research; and military/defense satellites.

Loading next visibility...
Identifier
51740, 2022-016AC
Orbit
LEO
Country
Flag of USUS
Related business
Manufacturer
SpaceX/Seattle
Mission
Operational Commercial Communications
Bus & Motor
STARLINK, Unknown motor
Mass
297 kg wet, ~275 kg dry
Launch date (UTC)
2022-02-21 (4 years ago)
Launch vehicle
FALCON 9
Launch site
Air Force Eastern Test Range (AFETR)
Object type
Payload
Rocket body
Debris
Shape & HBR
Box + 1 Pan, 10.1 m
Radar Cross Section
13.562 m², Large (>1 m²)

Expand to show TLE details & history
Last TLE update: 2 days ago

TLE from 2 days ago
0 STARLINK-3500
1 51740U 22016AC  26171.43463733 -.00002046  00000-0 -11051-3 0  9993
2 51740  53.1591 217.7637 0001012  80.5690 279.5415 15.08830352239077
Epoch: 2026-06-20T10:25Z
TLE epoch observation values (Epoch: 2026-06-20T10:25:52.665Z)
Latitude
-0.00008°
Longitude
152.6449°
Altitude
540.548 km
Speed
7.593 km/s
True Right ascension
14h 31m 03s
True Declination
0° 00' 00"
Sunlit
Object was in full shadow at epoch
Visualization orbit readout
Latitude
Unknown
Longitude
Unknown
Altitude
Unknown
Speed
Unknown
Apparent Right ascension
Unknown
Apparent Declination
Unknown
Sunlit
N/A
Visualization observer readout
Local Sidereal Time
00:30:45
Azimuth
Unknown
Elevation
Unknown
Doppler factor
Unknown
Orbital elements
Apogee altitude
540.727 km
Perigee altitude
539.327 km
Semi-major axis
6,918.164 km
Eccentricity
0.0001
Inclination
53.1591°
RAAN
217.7637°
Arg. of periapsis
80.569°
True anomaly
279.53006°
Mean anomaly
279.5415°
Eccentric anomaly
279.53578°
Mean motion
3.77187 °/min
Orbital period
95.44 mins
BSTAR
-0.00011051
Loading maneuver chart data...
Computing Atmospheric mass density...
Loading historical data...
Loading historical data...
Loading historical data...
Loading historical data...
Loading historical data...
Loading historical data...
Loading historical data...

Documentation

Showing up to 5 results
|